TimeCDT,TemperatureF,Dew PointF,Humidity,Sea Level PressureIn,VisibilityMPH,Wind Direction,Wind SpeedMPH,Gust SpeedMPH,PrecipitationIn,Events,Conditions,WindDirDegrees,DateUTC
12:15 AM,33.8,24.8,70,30.13,10.0,NNW,11.5,-,N/A,,Clear,340,2014-04-30 05:15:00
12:35 AM,33.8,24.8,70,30.13,10.0,NNW,11.5,-,N/A,,Clear,330,2014-04-30 05:35:00
12:55 AM,32.0,24.8,75,30.13,10.0,NNW,9.2,-,N/A,,Clear,340,2014-04-30 05:55:00
1:15 AM,32.0,24.8,75,30.13,10.0,North,11.5,-,N/A,,Clear,350,2014-04-30 06:15:00
1:35 AM,32.0,24.8,75,30.13,10.0,NNW,10.4,-,N/A,,Clear,340,2014-04-30 06:35:00
1:55 AM,32.0,24.8,75,30.13,10.0,NNW,10.4,-,N/A,,Clear,340,2014-04-30 06:55:00
2:15 AM,32.0,24.8,75,30.13,10.0,NW,6.9,-,N/A,,Scattered Clouds,320,2014-04-30 07:15:00
2:35 AM,32.0,24.8,75,30.12,10.0,NW,8.1,-,N/A,,Scattered Clouds,320,2014-04-30 07:35:00
2:55 AM,32.0,24.8,75,30.12,10.0,NNW,10.4,-,N/A,,Clear,330,2014-04-30 07:55:00
3:15 AM,32.0,24.8,75,30.12,10.0,NNW,10.4,-,N/A,,Clear,340,2014-04-30 08:15:00
3:35 AM,32.0,26.6,80,30.11,10.0,NNW,10.4,-,N/A,,Clear,340,2014-04-30 08:35:00
3:55 AM,32.0,26.6,80,30.11,10.0,NNW,10.4,-,N/A,,Clear,340,2014-04-30 08:55:00
4:15 AM,32.0,26.6,80,30.10,10.0,NNW,10.4,-,N/A,,Clear,330,2014-04-30 09:15:00
4:35 AM,32.0,26.6,80,30.10,10.0,NW,11.5,-,N/A,,Clear,320,2014-04-30 09:35:00
4:55 AM,32.0,26.6,80,30.11,10.0,NNW,8.1,-,N/A,,Clear,330,2014-04-30 09:55:00
5:15 AM,32.0,26.6,80,30.11,10.0,NNW,9.2,-,N/A,,Clear,330,2014-04-30 10:15:00
5:35 AM,30.2,26.6,86,30.12,10.0,NNW,10.4,-,N/A,,Clear,340,2014-04-30 10:35:00
6:15 AM,32.0,26.6,80,30.12,10.0,NNW,10.4,-,N/A,,Clear,340,2014-04-30 11:15:00
6:35 AM,32.0,26.6,80,30.13,10.0,NW,9.2,-,N/A,,Clear,320,2014-04-30 11:35:00
6:55 AM,32.0,28.4,87,30.13,10.0,NW,8.1,-,N/A,,Clear,320,2014-04-30 11:55:00
7:15 AM,32.0,26.6,80,30.13,10.0,NNW,13.8,-,N/A,,Clear,340,2014-04-30 12:15:00
7:35 AM,33.8,26.6,75,30.12,10.0,NNW,13.8,-,N/A,,Clear,340,2014-04-30 12:35:00
7:55 AM,35.6,26.6,70,30.13,10.0,NNW,13.8,-,N/A,,Clear,330,2014-04-30 12:55:00
8:15 AM,35.6,26.6,70,30.12,10.0,NNW,16.1,-,N/A,,Clear,340,2014-04-30 13:15:00
8:35 AM,37.4,26.6,65,30.13,10.0,NNW,15.0,-,N/A,,Clear,340,2014-04-30 13:35:00
8:55 AM,37.4,26.6,65,30.12,10.0,NNW,16.1,23.0,N/A,,Clear,330,2014-04-30 13:55:00
9:15 AM,37.4,28.4,70,30.12,10.0,NNW,18.4,-,N/A,,Clear,330,2014-04-30 14:15:00
9:35 AM,37.4,28.4,70,30.12,10.0,NNW,19.6,-,N/A,,Clear,330,2014-04-30 14:35:00
9:55 AM,39.2,28.4,65,30.12,10.0,NNW,16.1,-,N/A,,Clear,330,2014-04-30 14:55:00
10:15 AM,39.2,30.2,70,30.12,10.0,NNW,18.4,24.2,N/A,,Clear,330,2014-04-30 15:15:00
10:35 AM,41.0,32.0,70,30.12,10.0,NNW,16.1,-,N/A,,Clear,330,2014-04-30 15:35:00
10:55 AM,44.6,32.0,61,30.11,10.0,North,20.7,28.8,N/A,,Clear,360,2014-04-30 15:55:00
11:15 AM,44.6,32.0,61,30.11,10.0,North,21.9,32.2,N/A,,Clear,360,2014-04-30 16:15:00
11:35 AM,46.4,32.0,57,30.11,10.0,NNE,24.2,29.9,N/A,,Clear,20,2014-04-30 16:35:00
11:55 AM,46.4,32.0,57,30.11,10.0,North,17.3,25.3,N/A,,Clear,10,2014-04-30 16:55:00
12:15 PM,46.4,32.0,57,30.11,10.0,NNE,20.7,28.8,N/A,,Clear,30,2014-04-30 17:15:00
12:35 PM,46.4,32.0,57,30.11,10.0,NNE,18.4,25.3,N/A,,Partly Cloudy,20,2014-04-30 17:35:00
12:55 PM,46.4,32.0,57,30.10,10.0,North,20.7,25.3,N/A,,Scattered Clouds,10,2014-04-30 17:55:00
1:15 PM,46.4,32.0,57,30.10,10.0,North,21.9,27.6,N/A,,Partly Cloudy,350,2014-04-30 18:15:00
1:35 PM,46.4,33.8,62,30.10,10.0,North,18.4,25.3,N/A,,Partly Cloudy,350,2014-04-30 18:35:00
1:55 PM,46.4,32.0,57,30.10,10.0,North,17.3,25.3,N/A,,Partly Cloudy,350,2014-04-30 18:55:00
2:15 PM,46.4,32.0,57,30.10,10.0,North,20.7,-,N/A,,Partly Cloudy,350,2014-04-30 19:15:00
2:35 PM,46.4,33.8,62,30.09,10.0,NNW,15.0,-,N/A,,Scattered Clouds,330,2014-04-30 19:35:00
2:55 PM,48.2,33.8,58,30.09,10.0,NNW,20.7,27.6,N/A,,Partly Cloudy,340,2014-04-30 19:55:00
3:15 PM,48.2,33.8,58,30.08,10.0,North,21.9,27.6,N/A,,Partly Cloudy,350,2014-04-30 20:15:00
3:35 PM,48.2,33.8,58,30.08,10.0,North,20.7,33.4,N/A,,Partly Cloudy,360,2014-04-30 20:35:00
3:55 PM,50.0,35.6,58,30.08,10.0,North,20.7,28.8,N/A,,Partly Cloudy,360,2014-04-30 20:55:00
4:15 PM,50.0,35.6,58,30.08,10.0,North,21.9,27.6,N/A,,Scattered Clouds,360,2014-04-30 21:15:00
4:35 PM,50.0,33.8,54,30.07,10.0,North,21.9,32.2,N/A,,Mostly Cloudy,350,2014-04-30 21:35:00
4:55 PM,50.0,35.6,58,30.07,10.0,North,20.7,27.6,N/A,,Mostly Cloudy,10,2014-04-30 21:55:00
5:15 PM,50.0,35.6,58,30.07,10.0,North,19.6,28.8,N/A,,Mostly Cloudy,350,2014-04-30 22:15:00
5:35 PM,50.0,35.6,58,30.07,10.0,North,20.7,26.5,N/A,,Partly Cloudy,10,2014-04-30 22:35:00
5:55 PM,50.0,35.6,58,30.07,10.0,NNE,21.9,26.5,N/A,,Scattered Clouds,20,2014-04-30 22:55:00
6:15 PM,50.0,35.6,58,30.07,10.0,North,19.6,25.3,N/A,,Partly Cloudy,360,2014-04-30 23:15:00
6:35 PM,50.0,35.6,58,30.07,10.0,NNE,20.7,29.9,N/A,,Clear,20,2014-04-30 23:35:00
6:55 PM,50.0,33.8,54,30.07,10.0,North,20.7,27.6,N/A,,Partly Cloudy,10,2014-04-30 23:55:00
7:15 PM,50.0,33.8,54,30.07,10.0,North,21.9,27.6,N/A,,Scattered Clouds,10,2014-05-01 00:15:00
7:35 PM,50.0,33.8,54,30.07,10.0,North,23.0,-,N/A,,Partly Cloudy,10,2014-05-01 00:35:00
7:55 PM,48.2,33.8,58,30.08,10.0,North,18.4,25.3,N/A,,Mostly Cloudy,350,2014-05-01 00:55:00
8:15 PM,48.2,35.6,62,30.08,10.0,North,11.5,-,N/A,,Scattered Clouds,10,2014-05-01 01:15:00
8:35 PM,48.2,32.0,54,30.08,10.0,North,16.1,24.2,N/A,,Partly Cloudy,360,2014-05-01 01:35:00
8:55 PM,46.4,33.8,62,30.08,10.0,North,15.0,-,N/A,,Clear,360,2014-05-01 01:55:00
9:15 PM,46.4,32.0,57,30.08,10.0,North,12.7,-,N/A,,Clear,360,2014-05-01 02:15:00
9:35 PM,44.6,32.0,61,30.09,10.0,North,13.8,-,N/A,,Clear,360,2014-05-01 02:35:00
9:55 PM,44.6,32.0,61,30.09,10.0,North,11.5,-,N/A,,Clear,360,2014-05-01 02:55:00
10:15 PM,42.8,32.0,66,30.09,10.0,North,12.7,-,N/A,,Clear,10,2014-05-01 03:15:00
10:35 PM,42.8,32.0,66,30.09,10.0,North,10.4,-,N/A,,Clear,10,2014-05-01 03:35:00
10:55 PM,41.0,30.2,65,30.09,10.0,North,8.1,-,N/A,,Clear,360,2014-05-01 03:55:00
11:15 PM,39.2,28.4,65,30.09,10.0,North,8.1,-,N/A,,Clear,360,2014-05-01 04:15:00
11:35 PM,39.2,28.4,65,30.09,10.0,North,9.2,-,N/A,,Clear,360,2014-05-01 04:35:00
11:55 PM,39.2,26.6,61,30.08,10.0,North,8.1,-,N/A,,Clear,10,2014-05-01 04:55:00